Miscellaneous Local Product
Issued by NWS Hastings, NE

Home | Current Version | Previous Version | Text Only | Print | Product List | Glossary On
Versions: 1 2 3 4 5 6 7 8 9 10 11 12 13 14 15 16 17 18 19 20 21 22 23 24 25 26 27 28 29 30 31 32 33 34 35 36 37 38 39 40 41 42 43 44 45 46 47 48 49 50
000
AXUS43 KGID 260102
MISGRI

GID CWA HOURLY WEATHER ROUNDUP
NATIONAL WEATHER SERVICE HASTINGS NE
800 PM CDT WED MAY 25 2016

NOTE: "FAIR" INDICATES FEW OR NO CLOUDS BELOW 12,000 FEET WITH NO
SIGNIFICANT WEATHER AND/OR OBSTRUCTIONS TO VISIBILITY.

...SOUTH CENTRAL NEBRASKA...

CITY           SKY/WX    TMP DP  RH WIND       PRES   REMARKS
GRAND ISLAND   MOCLDY    73  64  73 CALM      29.83S
HASTINGS       PTCLDY    74  62  66 S3        29.83F
KEARNEY        PTCLDY    73  63  68 S6        29.84F
ORD            CLOUDY    76  60  57 S5        29.82R
YORK           PTCLDY    73  64  73 W3        29.83R
AURORA         PTCLDY    75  65  70 SW5       29.83S
LEXINGTON      CLOUDY    72  60  64 E3        29.85R
HOLDREGE       CLEAR     74  62  65 S3        29.84F
HEBRON         PTCLDY    77  68  72 SE3       29.81F

...NEBRASKA PANHANDLE...

CITY           SKY/WX    TMP DP  RH WIND       PRES   REMARKS
CHADRON        SUNNY     68  41  37 W3        29.90R
ALLIANCE       CLOUDY    65  44  46 NE9       29.91R
SCOTTSBLUFF    CLOUDY    70  37  29 S7        29.91R
SIDNEY         SUNNY     63  44  50 NE6       29.94S

...WESTERN AND NORTH CENTRAL NEBRASKA...

CITY           SKY/WX    TMP DP  RH WIND       PRES   REMARKS
VALENTINE      MOSUNNY   65  44  46 NW20G37   29.85S
AINSWORTH      CLOUDY    69  46  44 NW7       29.85F
ONEILL         CLOUDY    77  58  52 SW5       29.80S THUNDER
BROKEN BOW     CLOUDY    71  49  45 N12       29.86R
IMPERIAL       CLOUDY    56  49  77 N14       29.94F
NORTH PLATTE   TSTM      63  47  55 W38G62    29.95R SQUALL
MCCOOK         CLEAR     74  57  55 SE5       29.85S

...EASTERN NEBRASKA...

CITY           SKY/WX    TMP DP  RH WIND       PRES   REMARKS
NORFOLK        PTCLDY    78  60  53 CALM      29.79F
SO SIOUX CITY  MOCLDY    77  63  61 S8        29.78S
TEKAMAH        MOCLDY    77  65  66 S12       29.81S
COLUMBUS       CLEAR     77  61  57 S6        29.82R
ALBION         CLEAR     76  60  58 SW3       29.81F
OMAHA EPPLEY   MOCLDY    76  67  73 SE7       29.82S
OFFUTT AFB     MOCLDY    75  69  79 SE5       29.82S
MILLARD        CLOUDY    77  67  71 S5        29.82S
LINCOLN        CLEAR     76  67  73 S7        29.82F
NEBRASKA CITY  PTCLDY    76  68  75 S9        29.84S
BEATRICE       CLOUDY    76  69  77 SE6       29.83S
FALLS CITY     CLOUDY    78  68  71 SE7       29.82F

...NORTHERN KANSAS...

CITY           SKY/WX    TMP DP  RH WIND       PRES   REMARKS
GOODLAND       SUNNY     75  50  41 SE9       29.87F
HILL CITY      CLEAR     76  62  62 CALM      29.86S
NORTON         CLEAR     73  57  56 SE8       29.84F
PHILLIPSBURG   CLEAR     75  63  64 CALM      29.84F
SMITH CENTER   CLEAR     72  64  78 NW5       29.84S
BELOIT         MOCLDY    75  68  78 N3        29.81S
HAYS           CLEAR     72  64  78 NE3       29.83S
RUSSELL        CLEAR     77  69  76 NE6       29.81F
CONCORDIA      CLOUDY    76  69  79 NE5       29.81S
SALINA         CLEAR     83  73  72 NW13      29.76R
TOPEKA         CLOUDY    79  69  71 SE7       29.83R



USA.gov is the U.S. government's official web portal to all federal, state and local government web resources and services.